Location: Brompton
(51.4000°N, 0.5333°E)
Time: 12:26:09
(UTC+00:00)

Cosmos 1898 Rocket - Pass Details

Date: 29 September 2021
Orbit: 752 x 784 km, 74.0° (Epoch: 26 October)

Event Time Altitude Azimuth Distance (km) Brightness Sun altitude
Rises 22:17:31 0° 264° (W) 3,225 7.0 -37.8°
Reaches altitude 10° 22:20:58 10° 288° (WNW) 2,310 6.4 -38.1°
Maximum altitude 22:23:55 15° 323° (NW) 1,996 6.3 -38.3°
Drops below altitude 10° 22:26:53 10° 357° (N) 2,328 6.6 -38.5°
Sets 22:30:24 0° 21° (NNE) 3,266 7.3 -38.7°
